Time,TemperatureF,DewpointF,PressureIn,WindDirection,WindDirectionDegrees,WindSpeedMPH,WindSpeedGustMPH,Humidity,HourlyPrecipIn,Conditions,Clouds,dailyrainin,SoftwareType,DateUTC
2013-01-09 00:15:00,40.4,40.5,27.96,ESE,115,5.4,15.9,73,0.00,,,-99.99,HOBO +U30 +Weather +,2013-01-09 08:15:00,
2013-01-09 00:30:00,40.5,41.2,27.96,ESE,112,2.9,19.5,82,0.00,,,-99.99,HOBO +U30 +Weather +,2013-01-09 08:30:00,
2013-01-09 00:45:00,40.5,41.1,27.95,East,93,2.9,6.7,83,0.00,,,-99.99,HOBO +U30 +Weather +,2013-01-09 08:45:00,
2013-01-09 01:00:00,40.5,40.9,27.96,SE,128,3.8,12.5,79,0.00,,,-99.99,HOBO +U30 +Weather +,2013-01-09 09:00:00,
2013-01-09 01:15:00,40.5,39.7,27.96,ENE,70,4.3,25.7,76,0.00,,,-99.99,HOBO +U30 +Weather +,2013-01-09 09:15:00,
2013-01-09 01:30:00,40.5,39.5,27.96,ESE,122,4.9,20.8,70,0.00,,,-99.99,HOBO +U30 +Weather +,2013-01-09 09:30:00,
2013-01-09 01:45:00,40.5,38.7,27.94,East,98,4.3,9.6,74,0.00,,,-99.99,HOBO +U30 +Weather +,2013-01-09 09:45:00,
2013-01-09 02:00:00,40.5,39.3,27.93,SE,140,4.5,20.4,73,0.00,,,-99.99,HOBO +U30 +Weather +,2013-01-09 10:00:00,
2013-01-09 02:15:00,40.5,39.2,27.92,SE,145,5.8,17.4,69,0.00,,,-99.99,HOBO +U30 +Weather +,2013-01-09 10:15:00,
2013-01-09 02:30:00,40.5,39.5,27.92,East,88,2.9,29.5,76,0.00,,,-99.99,HOBO +U30 +Weather +,2013-01-09 10:30:00,
2013-01-09 03:00:00,40.5,38.9,27.90,ESE,108,4.3,8.3,74,0.00,,,-99.99,HOBO +U30 +Weather +,2013-01-09 11:00:00,
2013-01-09 03:15:00,40.5,38.6,27.90,ESE,122,4.5,27.7,73,0.00,,,-99.99,HOBO +U30 +Weather +,2013-01-09 11:15:00,
2013-01-09 03:30:00,40.5,38.3,27.90,SE,124,4.5,30.6,71,0.00,,,-99.99,HOBO +U30 +Weather +,2013-01-09 11:30:00,
2013-01-09 03:45:00,40.5,37.7,27.88,ESE,102,4.5,27.1,71,0.00,,,-99.99,HOBO +U30 +Weather +,2013-01-09 11:45:00,
2013-01-09 04:00:00,40.4,37.5,27.87,SE,128,4.9,20.8,72,0.00,,,-99.99,HOBO +U30 +Weather +,2013-01-09 12:00:00,
2013-01-09 04:15:00,40.4,37.5,27.86,ESE,117,5.8,13.0,74,0.00,,,-99.99,HOBO +U30 +Weather +,2013-01-09 12:15:00,
2013-01-09 04:30:00,40.4,37.8,27.86,ESE,119,5.4,27.7,75,0.00,,,-99.99,HOBO +U30 +Weather +,2013-01-09 12:30:00,
2013-01-09 04:45:00,40.4,37.2,27.85,ESE,117,5.4,30.6,73,0.00,,,-99.99,HOBO +U30 +Weather +,2013-01-09 12:45:00,
2013-01-09 05:00:00,40.4,37.4,27.83,ESE,119,4.5,8.3,77,0.00,,,-99.99,HOBO +U30 +Weather +,2013-01-09 13:00:00,
2013-01-09 05:15:00,40.4,36.9,27.81,ESE,107,4.5,9.6,75,0.00,,,-99.99,HOBO +U30 +Weather +,2013-01-09 13:15:00,
2013-01-09 05:30:00,40.4,37.1,27.80,ESE,115,4.5,30.2,76,0.00,,,-99.99,HOBO +U30 +Weather +,2013-01-09 13:30:00,
2013-01-09 05:45:00,40.4,36.8,27.78,SE,128,4.9,11.6,76,0.00,,,-99.99,HOBO +U30 +Weather +,2013-01-09 13:45:00,
2013-01-09 06:00:00,40.4,36.7,27.79,SE,126,3.4,7.4,74,0.00,,,-99.99,HOBO +U30 +Weather +,2013-01-09 14:00:00,
2013-01-09 06:15:00,40.3,36.7,27.78,ESE,112,2.5,16.6,74,0.00,,,-99.99,HOBO +U30 +Weather +,2013-01-09 14:15:00,
2013-01-09 06:30:00,40.3,37.4,27.80,ESE,121,2.5,10.1,84,0.00,,,-99.99,HOBO +U30 +Weather +,2013-01-09 14:30:00,
2013-01-09 06:45:00,40.2,35.0,27.82,NW,317,6.7,15.4,90,0.80,,,-99.99,HOBO +U30 +Weather +,2013-01-09 14:45:00,
2013-01-09 07:00:00,40.2,32.8,27.84,NW,319,4.3,12.5,92,1.50,,,-99.99,HOBO +U30 +Weather +,2013-01-09 15:00:00,
2013-01-09 07:15:00,40.1,31.6,27.84,West,263,3.4,24.8,94,0.30,,,-99.99,HOBO +U30 +Weather +,2013-01-09 15:15:00,
2013-01-09 07:30:00,40.0,31.2,27.85,WNW,298,1.3,26.2,95,0.00,,,-99.99,HOBO +U30 +Weather +,2013-01-09 15:30:00,
2013-01-09 08:30:00,39.7,31.5,27.87,North,0,0.0,25.3,96,0.00,,,-99.99,HOBO +U30 +Weather +,2013-01-09 16:30:00,
2013-01-09 08:45:00,39.5,31.5,27.87,North,0,0.0,24.2,96,0.00,,,-99.99,HOBO +U30 +Weather +,2013-01-09 16:45:00,
2013-01-09 09:00:00,39.5,31.5,27.88,North,0,0.0,25.7,96,0.00,,,-99.99,HOBO +U30 +Weather +,2013-01-09 17:00:00,
2013-01-09 09:15:00,39.5,31.5,27.88,NNW,344,0.0,25.3,96,0.00,,,-99.99,HOBO +U30 +Weather +,2013-01-09 17:15:00,
2013-01-09 09:30:00,39.4,31.6,27.89,WNW,292,0.0,25.3,96,0.00,,,-99.99,HOBO +U30 +Weather +,2013-01-09 17:30:00,
2013-01-09 09:45:00,39.3,31.9,27.89,NW,312,0.0,25.3,96,0.00,,,-99.99,HOBO +U30 +Weather +,2013-01-09 17:45:00,
2013-01-09 10:00:00,39.3,31.8,27.89,NW,312,0.0,27.1,96,0.00,,,-99.99,HOBO +U30 +Weather +,2013-01-09 18:00:00,
2013-01-09 10:15:00,39.2,31.8,27.90,NW,312,0.0,26.6,96,0.00,,,-99.99,HOBO +U30 +Weather +,2013-01-09 18:15:00,
2013-01-09 10:30:00,39.1,31.9,27.90,NW,320,0.0,24.8,96,0.30,,,-99.99,HOBO +U30 +Weather +,2013-01-09 18:30:00,
2013-01-09 10:45:00,39.1,31.9,27.90,NNW,331,0.0,25.7,96,0.00,,,-99.99,HOBO +U30 +Weather +,2013-01-09 18:45:00,
2013-01-09 11:00:00,39.0,32.5,27.91,NNW,329,0.0,27.3,96,0.00,,,-99.99,HOBO +U30 +Weather +,2013-01-09 19:00:00,
2013-01-09 11:15:00,38.9,32.3,27.91,NNW,330,0.0,26.2,96,0.00,,,-99.99,HOBO +U30 +Weather +,2013-01-09 19:15:00,
2013-01-09 11:45:00,38.8,32.1,27.91,North,355,0.0,0.0,96,0.00,,,-99.99,HOBO +U30 +Weather +,2013-01-09 19:45:00,
2013-01-09 12:00:00,38.7,32.3,27.91,North,350,0.0,0.0,96,0.00,,,-99.99,HOBO +U30 +Weather +,2013-01-09 20:00:00,
2013-01-09 12:15:00,38.6,32.1,27.91,North,355,0.0,0.0,96,0.00,,,-99.99,HOBO +U30 +Weather +,2013-01-09 20:15:00,
2013-01-09 12:45:00,38.4,33.2,27.91,North,3,0.4,4.5,96,0.00,,,-99.99,HOBO +U30 +Weather +,2013-01-09 20:45:00,
2013-01-09 13:00:00,38.3,32.5,27.93,NNW,347,0.9,6.3,95,0.00,,,-99.99,HOBO +U30 +Weather +,2013-01-09 21:00:00,
2013-01-09 13:30:00,38.1,33.0,27.93,North,8,0.0,0.0,96,0.00,,,-99.99,HOBO +U30 +Weather +,2013-01-09 21:30:00,
2013-01-09 13:45:00,38.0,32.7,27.93,North,7,0.0,0.0,96,0.00,,,-99.99,HOBO +U30 +Weather +,2013-01-09 21:45:00,
2013-01-09 14:00:00,37.9,32.3,27.94,NNW,340,0.0,0.0,96,0.00,,,-99.99,HOBO +U30 +Weather +,2013-01-09 22:00:00,
2013-01-09 14:15:00,37.8,32.3,27.94,North,354,0.0,0.0,96,0.00,,,-99.99,HOBO +U30 +Weather +,2013-01-09 22:15:00,
2013-01-09 14:30:00,37.8,32.5,27.95,North,354,0.9,3.4,96,0.00,,,-99.99,HOBO +U30 +Weather +,2013-01-09 22:30:00,
2013-01-09 14:45:00,37.7,32.4,27.95,North,3,0.0,26.2,96,0.00,,,-99.99,HOBO +U30 +Weather +,2013-01-09 22:45:00,
2013-01-09 15:00:00,37.7,32.1,27.96,NNW,347,1.6,27.3,96,0.00,,,-99.99,HOBO +U30 +Weather +,2013-01-09 23:00:00,
2013-01-09 15:15:00,37.6,31.9,27.97,North,350,0.4,26.2,97,0.00,,,-99.99,HOBO +U30 +Weather +,2013-01-09 23:15:00,
2013-01-09 15:30:00,37.6,32.5,27.97,NNW,333,0.0,25.3,96,0.00,,,-99.99,HOBO +U30 +Weather +,2013-01-09 23:30:00,
2013-01-09 15:45:00,37.6,32.0,27.98,NW,321,0.0,25.3,96,0.00,,,-99.99,HOBO +U30 +Weather +,2013-01-09 23:45:00,
2013-01-09 16:00:00,37.5,32.0,27.98,WSW,241,0.0,25.3,96,0.00,,,-99.99,HOBO +U30 +Weather +,2013-01-10 00:00:00,
2013-01-09 16:15:00,37.4,31.9,27.98,North,355,0.0,27.1,97,0.00,,,-99.99,HOBO +U30 +Weather +,2013-01-10 00:15:00,
2013-01-09 16:30:00,37.4,31.9,27.99,North,0,0.0,25.7,97,0.00,,,-99.99,HOBO +U30 +Weather +,2013-01-10 00:30:00,
2013-01-09 16:45:00,37.4,31.4,27.99,NNW,344,0.0,24.8,97,0.00,,,-99.99,HOBO +U30 +Weather +,2013-01-10 00:45:00,
2013-01-09 17:00:00,37.4,31.3,27.99,WNW,303,0.0,25.3,97,0.00,,,-99.99,HOBO +U30 +Weather +,2013-01-10 01:00:00,
2013-01-09 17:15:00,37.4,31.6,28.00,SW,219,0.0,24.4,97,0.00,,,-99.99,HOBO +U30 +Weather +,2013-01-10 01:15:00,
2013-01-09 17:30:00,37.4,31.6,28.00,NW,306,0.0,25.3,97,0.00,,,-99.99,HOBO +U30 +Weather +,2013-01-10 01:30:00,
2013-01-09 17:45:00,37.4,31.7,28.00,NW,323,0.0,0.4,97,0.00,,,-99.99,HOBO +U30 +Weather +,2013-01-10 01:45:00,
2013-01-09 18:00:00,37.4,31.1,28.01,NNW,329,0.0,25.3,97,0.00,,,-99.99,HOBO +U30 +Weather +,2013-01-10 02:00:00,
2013-01-09 18:15:00,37.4,31.2,28.01,NNW,330,0.0,24.2,97,0.00,,,-99.99,HOBO +U30 +Weather +,2013-01-10 02:15:00,
2013-01-09 18:30:00,37.4,30.6,28.00,NW,317,0.0,24.2,97,0.00,,,-99.99,HOBO +U30 +Weather +,2013-01-10 02:30:00,
2013-01-09 18:45:00,37.4,30.3,28.00,NW,317,0.0,25.3,97,0.00,,,-99.99,HOBO +U30 +Weather +,2013-01-10 02:45:00,
2013-01-09 19:00:00,37.4,30.3,28.01,NW,317,0.0,24.4,97,0.00,,,-99.99,HOBO +U30 +Weather +,2013-01-10 03:00:00,
2013-01-09 19:15:00,37.4,30.9,28.01,NW,317,0.0,24.4,98,0.00,,,-99.99,HOBO +U30 +Weather +,2013-01-10 03:15:00,
2013-01-09 19:30:00,37.4,31.0,28.02,NW,317,0.0,24.2,98,0.00,,,-99.99,HOBO +U30 +Weather +,2013-01-10 03:30:00,
2013-01-09 19:45:00,37.4,31.2,28.02,NW,317,0.0,23.7,97,0.00,,,-99.99,HOBO +U30 +Weather +,2013-01-10 03:45:00,
2013-01-09 20:00:00,37.4,30.2,28.02,NW,317,0.0,24.4,98,0.00,,,-99.99,HOBO +U30 +Weather +,2013-01-10 04:00:00,
2013-01-09 20:15:00,37.3,29.6,28.01,NW,317,0.0,23.7,97,0.00,,,-99.99,HOBO +U30 +Weather +,2013-01-10 04:15:00,
2013-01-09 20:30:00,37.3,29.7,28.02,NW,317,0.0,24.4,98,0.00,,,-99.99,HOBO +U30 +Weather +,2013-01-10 04:30:00,
2013-01-09 20:45:00,37.3,30.2,28.03,NW,317,0.0,24.2,98,0.00,,,-99.99,HOBO +U30 +Weather +,2013-01-10 04:45:00,
2013-01-09 21:00:00,37.3,30.1,28.03,NW,317,0.0,24.8,98,0.00,,,-99.99,HOBO +U30 +Weather +,2013-01-10 05:00:00,
2013-01-09 21:15:00,37.3,30.2,28.03,NW,317,0.0,24.8,98,0.00,,,-99.99,HOBO +U30 +Weather +,2013-01-10 05:15:00,
2013-01-09 21:30:00,37.3,30.2,28.02,NW,317,0.0,24.8,98,0.00,,,-99.99,HOBO +U30 +Weather +,2013-01-10 05:30:00,
2013-01-09 21:45:00,37.3,30.3,28.02,NW,317,0.0,23.7,98,0.00,,,-99.99,HOBO +U30 +Weather +,2013-01-10 05:45:00,
2013-01-09 22:00:00,37.3,30.7,28.03,NW,317,0.0,23.7,98,0.00,,,-99.99,HOBO +U30 +Weather +,2013-01-10 06:00:00,
2013-01-09 22:15:00,37.3,30.7,28.04,NW,317,0.0,23.7,98,0.00,,,-99.99,HOBO +U30 +Weather +,2013-01-10 06:15:00,
2013-01-09 22:30:00,37.3,30.6,28.04,NW,317,0.0,24.4,98,0.00,,,-99.99,HOBO +U30 +Weather +,2013-01-10 06:30:00,
2013-01-09 22:45:00,37.3,30.5,28.04,NW,317,0.0,23.7,98,0.00,,,-99.99,HOBO +U30 +Weather +,2013-01-10 06:45:00,
2013-01-09 23:00:00,37.3,30.0,28.04,NW,317,0.0,24.2,98,0.00,,,-99.99,HOBO +U30 +Weather +,2013-01-10 07:00:00,
2013-01-09 23:15:00,37.3,29.5,28.04,NW,317,0.0,23.7,98,0.00,,,-99.99,HOBO +U30 +Weather +,2013-01-10 07:15:00,
2013-01-09 23:30:00,37.3,28.5,28.04,NW,317,0.0,25.3,97,0.00,,,-99.99,HOBO +U30 +Weather +,2013-01-10 07:30:00,
2013-01-09 23:45:00,37.2,29.1,28.04,NW,317,0.0,24.8,98,0.00,,,-99.99,HOBO +U30 +Weather +,2013-01-10 07:45:00,